,,Stat6,,Stat2,,Stat8,,Stat9,,Stat10,,Wind1,,Wind1,
time,status,PA1M_AVG,status,PR1M_SUM,status,RH1M_AVG,status,SR1M_AVG,status,TA1M_AVG,status,W1dAve1m,status,W1sAve1m,
2005-06-18, 00:00:00,VALID,917.259,VALID,0,VALID,98.1882,VALID,-0.0169808,VALID,20.0785,VALID,282,VALID,0.417333,
2005-06-18, 00:01:00,VALID,917.263,VALID,0,VALID,98.1221,VALID,-0.0169808,VALID,20.1305,VALID,284,VALID,0.399891,
2005-06-18, 00:02:00,VALID,917.261,VALID,0,VALID,98.1552,VALID,0.0339617,VALID,20.1655,VALID,285,VALID,0.215774,
2005-06-18, 00:03:00,VALID,917.246,VALID,0,VALID,98.1984,VALID,0,VALID,20.1652,VALID,285,VALID,0.182958,
2005-06-18, 00:04:00,VALID,917.243,VALID,0,VALID,98.1513,VALID,0,VALID,20.1757,VALID,284,VALID,0.028125,
2005-06-18, 00:05:00,VALID,917.226,VALID,0,VALID,97.9263,VALID,0.0169808,VALID,20.159,VALID,354,VALID,0.206364,
2005-06-18, 00:06:00,VALID,917.224,VALID,0,VALID,97.7419,VALID,0.0169808,VALID,20.156,VALID,55,VALID,0.231136,
2005-06-18, 00:07:00,VALID,917.211,VALID,0,VALID,97.4303,VALID,0,VALID,20.156,VALID,55,VALID,0.280208,
2005-06-18, 00:08:00,VALID,917.191,VALID,0,VALID,97.2332,VALID,0,VALID,20.1854,VALID,55,VALID,0.0590946,
2005-06-18, 00:09:00,VALID,917.185,VALID,0,VALID,97.3413,VALID,0,VALID,20.2075,VALID,55,VALID,0.0213415,
2005-06-18, 00:10:00,VALID,917.17,VALID,0,VALID,97.41,VALID,0,VALID,20.2204,VALID,55,VALID,0,
2005-06-18, 00:11:00,VALID,917.156,VALID,0,VALID,97.3553,VALID,-0.0169808,VALID,20.2271,VALID,55,VALID,0,
2005-06-18, 00:12:00,VALID,917.146,VALID,0,VALID,97.3095,VALID,0,VALID,20.2233,VALID,55,VALID,0,
2005-06-18, 00:13:00,VALID,917.12,VALID,0,VALID,97.1862,VALID,-0.0169808,VALID,20.2139,VALID,55,VALID,0,
2005-06-18, 00:14:00,VALID,917.105,VALID,0,VALID,96.7437,VALID,-0.0169808,VALID,20.198,VALID,55,VALID,0.261039,
2005-06-18, 00:15:00,VALID,917.096,VALID,0,VALID,96.661,VALID,0,VALID,20.2109,VALID,55,VALID,0.338867,
2005-06-18, 00:16:00,VALID,917.09,VALID,0,VALID,96.7335,VALID,-0.0169808,VALID,20.2276,VALID,87,VALID,0.537791,
2005-06-18, 00:17:00,VALID,917.091,VALID,0,VALID,96.8073,VALID,-0.0169808,VALID,20.2045,VALID,116,VALID,0.660742,
2005-06-18, 00:18:00,VALID,917.092,VALID,0,VALID,96.8632,VALID,0,VALID,20.1983,VALID,116,VALID,0.566883,
2005-06-18, 00:19:00,VALID,917.092,VALID,0,VALID,96.8619,VALID,0,VALID,20.1913,VALID,117,VALID,0.58631,
2005-06-18, 00:20:00,VALID,917.104,VALID,0,VALID,96.7208,VALID,-0.0169808,VALID,20.2112,VALID,122,VALID,0.607515,
2005-06-18, 00:21:00,VALID,917.128,VALID,0,VALID,96.5974,VALID,-0.0169808,VALID,20.24,VALID,127,VALID,0.56436,
2005-06-18, 00:22:00,VALID,917.136,VALID,0,VALID,96.4754,VALID,-0.0169808,VALID,20.2656,VALID,136,VALID,0.641387,
2005-06-18, 00:23:00,VALID,917.121,VALID,0,VALID,96.3927,VALID,0,VALID,20.2882,VALID,140,VALID,0.787202,
2005-06-18, 00:24:00,VALID,917.128,VALID,0,VALID,96.4728,VALID,0,VALID,20.2981,VALID,148,VALID,0.635975,
2005-06-18, 00:25:00,VALID,917.146,VALID,0,VALID,96.5606,VALID,0,VALID,20.2917,VALID,128,VALID,0.517624,
2005-06-18, 00:26:00,VALID,917.142,VALID,0,VALID,96.6979,VALID,-0.0339617,VALID,20.2693,VALID,121,VALID,0.644985,
2005-06-18, 00:27:00,VALID,917.141,VALID,0,VALID,97.0056,VALID,-0.0169808,VALID,20.2266,VALID,119,VALID,0.83125,
2005-06-18, 00:28:00,VALID,917.148,VALID,0,VALID,97.3401,VALID,0,VALID,20.1873,VALID,114,VALID,0.633185,
2005-06-18, 00:29:00,VALID,917.15,VALID,0,VALID,97.5906,VALID,0.0169808,VALID,20.1722,VALID,112,VALID,0.596227,
2005-06-18, 00:30:00,VALID,917.142,VALID,0,VALID,97.766,VALID,0,VALID,20.1391,VALID,105,VALID,0.659417,
2005-06-18, 00:31:00,VALID,917.113,VALID,0,VALID,97.925,VALID,-0.0169808,VALID,20.12,VALID,105,VALID,0.690848,
2005-06-18, 00:32:00,VALID,917.083,VALID,0,VALID,98.0712,VALID,0,VALID,20.1006,VALID,103,VALID,1.09051,
2005-06-18, 00:33:00,VALID,917.057,VALID,0,VALID,98.1475,VALID,-0.0169808,VALID,20.0818,VALID,106,VALID,1.12221,
2005-06-18, 00:34:00,VALID,917.028,VALID,0,VALID,98.2594,VALID,-0.0339617,VALID,20.0721,VALID,111,VALID,1.20972,
2005-06-18, 00:35:00,VALID,917.02,VALID,0,VALID,98.351,VALID,-0.0169808,VALID,20.0656,VALID,117,VALID,1.131,
2005-06-18, 00:36:00,VALID,917.016,VALID,0,VALID,98.4006,VALID,0,VALID,20.0654,VALID,117,VALID,0.792783,
2005-06-18, 00:37:00,VALID,917,VALID,0,VALID,98.3942,VALID,0,VALID,20.0723,VALID,111,VALID,0.866655,
2005-06-18, 00:38:00,VALID,916.993,VALID,0,VALID,98.4756,VALID,0,VALID,20.0778,VALID,110,VALID,0.202943,
2005-06-18, 00:39:00,VALID,916.997,VALID,0,VALID,98.5748,VALID,0,VALID,20.0877,VALID,110,VALID,0.0012429,
2005-06-18, 00:40:00,VALID,916.995,VALID,0,VALID,98.4095,VALID,0,VALID,20.0904,VALID,114,VALID,0.51262,
2005-06-18, 00:41:00,VALID,916.978,VALID,0,VALID,98.1908,VALID,0,VALID,20.084,VALID,125,VALID,0.62642,
2005-06-18, 00:42:00,VALID,916.939,VALID,0,VALID,98.0509,VALID,0.0169808,VALID,20.1041,VALID,104,VALID,1.00533,
2005-06-18, 00:43:00,VALID,916.934,VALID,0,VALID,98.0623,VALID,0.0169808,VALID,20.1136,VALID,61,VALID,0.836128,
2005-06-18, 00:44:00,VALID,916.935,VALID,0,VALID,98.2632,VALID,0.0169808,VALID,20.1334,VALID,32,VALID,0.719336,
2005-06-18, 00:45:00,VALID,916.922,VALID,0,VALID,98.3065,VALID,-0.0169808,VALID,20.1267,VALID,43,VALID,0.753162,
2005-06-18, 00:46:00,VALID,916.925,VALID,0,VALID,98.1234,VALID,0,VALID,20.1165,VALID,51,VALID,0.444965,
2005-06-18, 00:47:00,VALID,916.919,VALID,0,VALID,97.9275,VALID,0,VALID,20.1203,VALID,51,VALID,0.277043,
2005-06-18, 00:48:00,VALID,916.919,VALID,0,VALID,98.0216,VALID,0,VALID,20.1232,VALID,51,VALID,0.360647,
2005-06-18, 00:49:00,VALID,916.92,VALID,0,VALID,97.864,VALID,0,VALID,20.126,VALID,51,VALID,0.394436,
2005-06-18, 00:50:00,VALID,916.925,VALID,0,VALID,97.7165,VALID,0.0169808,VALID,20.1203,VALID,51,VALID,0.131037,
2005-06-18, 00:51:00,VALID,916.946,VALID,0,VALID,97.7126,VALID,0,VALID,20.1394,VALID,38,VALID,0.261533,
2005-06-18, 00:52:00,VALID,916.956,VALID,0,VALID,97.6338,VALID,-0.0169808,VALID,20.1461,VALID,313,VALID,0.683854,
2005-06-18, 00:53:00,VALID,916.957,VALID,0,VALID,97.452,VALID,0.0169808,VALID,20.1652,VALID,311,VALID,0.323718,
2005-06-18, 00:54:00,VALID,916.938,VALID,0,VALID,97.3248,VALID,0,VALID,20.1876,VALID,311,VALID,0.0750363,
2005-06-18, 00:55:00,VALID,916.915,VALID,0,VALID,97.2383,VALID,0,VALID,20.2206,VALID,311,VALID,0,
2005-06-18, 00:56:00,VALID,916.908,VALID,0,VALID,97.41,VALID,0,VALID,20.2397,VALID,311,VALID,0,
2005-06-18, 00:57:00,VALID,916.878,VALID,0,VALID,97.5397,VALID,0,VALID,20.2653,VALID,311,VALID,0,
2005-06-18, 00:58:00,VALID,916.867,VALID,0,VALID,97.6046,VALID,0,VALID,20.2855,VALID,311,VALID,0,
2005-06-18, 00:59:00,VALID,916.852,VALID,0,VALID,97.733,VALID,-0.0169808,VALID,20.3011,VALID,311,VALID,0.0184028,
2005-06-18, 01:00:00,VALID,916.83,VALID,0,VALID,97.9364,VALID,0,VALID,20.3205,VALID,311,VALID,0.0362847,
2005-06-18, 01:01:00,VALID,916.779,VALID,0,VALID,97.7915,VALID,0,VALID,20.3202,VALID,351,VALID,0.553089,
2005-06-18, 01:02:00,VALID,916.74,VALID,0,VALID,98.0165,VALID,0.0169808,VALID,20.3267,VALID,31,VALID,0.463728,
2005-06-18, 01:03:00,VALID,916.738,VALID,0,VALID,98.0483,VALID,0,VALID,20.3133,VALID,31,VALID,0.229288,
2005-06-18, 01:04:00,VALID,916.718,VALID,0,VALID,97.9848,VALID,0,VALID,20.3143,VALID,31,VALID,0.0601381,
2005-06-18, 01:05:00,VALID,916.688,VALID,0,VALID,98.0572,VALID,0,VALID,20.2941,VALID,31,VALID,0.480859,
2005-06-18, 01:06:00,VALID,916.679,VALID,0,VALID,98.1043,VALID,0.0169808,VALID,20.2812,VALID,34,VALID,0.596058,
2005-06-18, 01:07:00,VALID,916.675,VALID,0,VALID,97.8347,VALID,0.0509425,VALID,20.2487,VALID,40,VALID,0.449219,
2005-06-18, 01:08:00,VALID,916.687,VALID,0,VALID,97.5194,VALID,0,VALID,20.2333,VALID,40,VALID,0.0998884,
2005-06-18, 01:09:00,VALID,916.697,VALID,0,VALID,97.6046,VALID,0.0169808,VALID,20.2263,VALID,40,VALID,0.0423329,
2005-06-18, 01:10:00,VALID,916.696,VALID,0,VALID,97.5028,VALID,0.0339617,VALID,20.2397,VALID,40,VALID,0.0269886,
2005-06-18, 01:11:00,VALID,916.68,VALID,0,VALID,97.2294,VALID,0.0339617,VALID,20.2363,VALID,40,VALID,0.00109012,
2005-06-18, 01:12:00,VALID,916.679,VALID,0,VALID,97.0005,VALID,0.0679233,VALID,20.2363,VALID,40,VALID,0.170785,
2005-06-18, 01:13:00,VALID,916.669,VALID,0,VALID,97.1531,VALID,0.0509425,VALID,20.2554,VALID,40,VALID,0.106889,
2005-06-18, 01:14:00,VALID,916.65,VALID,0,VALID,97.1188,VALID,0.0679233,VALID,20.2656,VALID,40,VALID,0.468217,
2005-06-18, 01:15:00,VALID,916.649,VALID,0,VALID,96.5084,VALID,0.0509425,VALID,20.2522,VALID,41,VALID,0.347284,
2005-06-18, 01:16:00,VALID,916.636,VALID,0,VALID,96.5618,VALID,-0.0339617,VALID,20.2728,VALID,42,VALID,0.406605,
2005-06-18, 01:17:00,VALID,916.611,VALID,0,VALID,96.4245,VALID,-0.0679233,VALID,20.2924,VALID,54,VALID,0.547256,
2005-06-18, 01:18:00,VALID,916.594,VALID,0,VALID,96.3902,VALID,-0.101885,VALID,20.2895,VALID,61,VALID,0.393973,
2005-06-18, 01:19:00,VALID,916.567,VALID,0,VALID,96.5758,VALID,-0.0849042,VALID,20.2897,VALID,66,VALID,0.247869,
2005-06-18, 01:20:00,VALID,916.539,VALID,0,VALID,96.7945,VALID,-0.0509425,VALID,20.2795,VALID,102,VALID,0.571555,
2005-06-18, 01:21:00,VALID,916.538,VALID,0,VALID,96.8937,VALID,-0.0849042,VALID,20.2703,VALID,129,VALID,0.877038,
2005-06-18, 01:22:00,VALID,916.522,VALID,0,VALID,97.0641,VALID,-0.101885,VALID,20.241,VALID,122,VALID,0.779204,
2005-06-18, 01:23:00,VALID,916.491,VALID,0,VALID,97.3439,VALID,-0.0339617,VALID,20.199,VALID,131,VALID,0.810826,
2005-06-18, 01:24:00,VALID,916.457,VALID,0,VALID,97.6033,VALID,-0.0679233,VALID,20.1541,VALID,137,VALID,0.942894,
2005-06-18, 01:25:00,VALID,916.429,VALID,0,VALID,97.8436,VALID,-0.0339617,VALID,20.1118,VALID,135,VALID,1.26999,
2005-06-18, 01:26:00,VALID,916.407,VALID,0,VALID,97.9631,VALID,-0.101885,VALID,20.0634,VALID,134,VALID,1.2338,
2005-06-18, 01:27:00,VALID,916.38,VALID,0,VALID,98.1564,VALID,-0.0679233,VALID,20.041,VALID,141,VALID,1.0483,
2005-06-18, 01:28:00,VALID,916.366,VALID,0,VALID,98.3332,VALID,-0.0849042,VALID,20.012,VALID,147,VALID,0.948331,
2005-06-18, 01:29:00,VALID,916.327,VALID,0,VALID,98.5214,VALID,-0.0509425,VALID,19.9824,VALID,140,VALID,0.676339,
2005-06-18, 01:30:00,VALID,916.326,VALID,0,VALID,98.6549,VALID,-0.0849042,VALID,19.9534,VALID,141,VALID,1.12805,
2005-06-18, 01:31:00,VALID,916.303,VALID,0,VALID,98.7744,VALID,-0.0679233,VALID,19.9539,VALID,134,VALID,1.23597,
2005-06-18, 01:32:00,VALID,916.284,VALID,0,VALID,98.9168,VALID,-0.0849042,VALID,19.9183,VALID,132,VALID,1.10714,
2005-06-18, 01:33:00,VALID,916.27,VALID,0,VALID,99.0733,VALID,-0.0849042,VALID,19.9019,VALID,132,VALID,0.89117,
2005-06-18, 01:34:00,VALID,916.253,VALID,0,VALID,99.1979,VALID,-0.101885,VALID,19.8898,VALID,123,VALID,0.898624,
2005-06-18, 01:35:00,VALID,916.24,VALID,0,VALID,99.2754,VALID,-0.0679233,VALID,19.8704,VALID,118,VALID,0.879464,
2005-06-18, 01:36:00,VALID,916.217,VALID,0,VALID,99.3466,VALID,-0.101885,VALID,19.8508,VALID,112,VALID,0.729469,
2005-06-18, 01:37:00,VALID,916.194,VALID,0,VALID,99.428,VALID,-0.0509425,VALID,19.8416,VALID,118,VALID,0.899771,
2005-06-18, 01:38:00,VALID,916.157,VALID,0,VALID,99.4916,VALID,-0.0849042,VALID,19.8182,VALID,120,VALID,0.80451,
2005-06-18, 01:39:00,VALID,916.115,VALID,0,VALID,99.5031,VALID,-0.0509425,VALID,19.8088,VALID,110,VALID,1.05669,
2005-06-18, 01:40:00,VALID,916.082,VALID,0,VALID,99.5069,VALID,-0.0849042,VALID,19.8023,VALID,106,VALID,1.07431,
2005-06-18, 01:41:00,VALID,916.062,VALID,0,VALID,99.4636,VALID,-0.0679233,VALID,19.8023,VALID,106,VALID,1.14118,
2005-06-18, 01:42:00,VALID,916.049,VALID,0,VALID,99.3823,VALID,-0.0849042,VALID,19.7926,VALID,106,VALID,0.887195,
2005-06-18, 01:43:00,VALID,916.026,VALID,0,VALID,99.2754,VALID,-0.0849042,VALID,19.8085,VALID,101,VALID,1.12961,
2005-06-18, 01:44:00,VALID,915.998,VALID,0,VALID,99.1394,VALID,-0.0679233,VALID,19.8053,VALID,102,VALID,1.19442,
2005-06-18, 01:45:00,VALID,915.998,VALID,0,VALID,99.0173,VALID,-0.101885,VALID,19.8152,VALID,86,VALID,0.967226,
2005-06-18, 01:46:00,VALID,915.997,VALID,0,VALID,98.8851,VALID,-0.0169808,VALID,19.8147,VALID,93,VALID,1.01563,
2005-06-18, 01:47:00,VALID,916.003,VALID,0,VALID,98.7566,VALID,0.0169808,VALID,19.8038,VALID,87,VALID,0.778832,
2005-06-18, 01:48:00,VALID,915.989,VALID,0,VALID,98.5824,VALID,0,VALID,19.8267,VALID,94,VALID,0.798399,
2005-06-18, 01:49:00,VALID,915.973,VALID,0,VALID,98.4629,VALID,0.0339617,VALID,19.8366,VALID,89,VALID,0.696841,
2005-06-18, 01:50:00,VALID,915.956,VALID,0,VALID,98.3599,VALID,0,VALID,19.8393,VALID,95,VALID,0.805556,
2005-06-18, 01:51:00,VALID,915.922,VALID,0,VALID,98.2378,VALID,0.0339617,VALID,19.846,VALID,92,VALID,0.53497,
2005-06-18, 01:52:00,VALID,915.899,VALID,0,VALID,98.2175,VALID,0.0339617,VALID,19.8423,VALID,96,VALID,0.543056,
2005-06-18, 01:53:00,VALID,915.897,VALID,0,VALID,98.1869,VALID,0.0339617,VALID,19.852,VALID,103,VALID,0.828506,
2005-06-18, 01:54:00,VALID,915.897,VALID,0,VALID,98.1437,VALID,0.0339617,VALID,19.8624,VALID,106,VALID,0.935826,
2005-06-18, 01:55:00,VALID,915.854,VALID,0,VALID,98.0992,VALID,0.0339617,VALID,19.8751,VALID,91,VALID,1.15851,
2005-06-18, 01:56:00,VALID,915.838,VALID,0,VALID,98.0852,VALID,0,VALID,19.8719,VALID,91,VALID,1.22743,
2005-06-18, 01:57:00,VALID,915.81,VALID,0,VALID,98.0903,VALID,0.0849042,VALID,19.8617,VALID,96,VALID,1.10703,
2005-06-18, 01:58:00,VALID,915.782,VALID,0,VALID,98.1463,VALID,0,VALID,19.8624,VALID,87,VALID,1.15376,
2005-06-18, 01:59:00,VALID,915.769,VALID,0,VALID,98.2213,VALID,0.0339617,VALID,19.8465,VALID,85,VALID,1.01055,
2005-06-18, 02:00:00,VALID,915.768,VALID,0,VALID,98.2912,VALID,0.0169808,VALID,19.8234,VALID,99,VALID,0.970022,
2005-06-18, 02:01:00,VALID,915.753,VALID,0,VALID,98.3917,VALID,0,VALID,19.8113,VALID,114,VALID,0.734012,
2005-06-18, 02:02:00,VALID,915.744,VALID,0,VALID,98.44,VALID,-0.0169808,VALID,19.7849,VALID,83,VALID,0.757118,
2005-06-18, 02:03:00,VALID,915.722,VALID,0,VALID,98.44,VALID,-0.0339617,VALID,19.7718,VALID,89,VALID,0.584821,
2005-06-18, 02:04:00,VALID,915.716,VALID,0,VALID,98.5125,VALID,0,VALID,19.7653,VALID,103,VALID,0.728277,
2005-06-18, 02:05:00,VALID,915.709,VALID,0,VALID,98.5659,VALID,-0.0339617,VALID,19.7755,VALID,113,VALID,0.80814,
2005-06-18, 02:06:00,VALID,915.67,VALID,0,VALID,98.426,VALID,0.0169808,VALID,19.7812,VALID,114,VALID,1.10379,
2005-06-18, 02:07:00,VALID,915.656,VALID,0,VALID,98.1882,VALID,0,VALID,19.8073,VALID,104,VALID,1.02582,
2005-06-18, 02:08:00,VALID,915.651,VALID,0,VALID,97.9555,VALID,0,VALID,19.8428,VALID,95,VALID,0.47237,
2005-06-18, 02:09:00,VALID,915.639,VALID,0,VALID,97.8563,VALID,0,VALID,19.8659,VALID,95,VALID,0.412287,
2005-06-18, 02:10:00,VALID,915.619,VALID,0,VALID,97.8487,VALID,-0.0339617,VALID,19.849,VALID,95,VALID,0.758903,
2005-06-18, 02:11:00,VALID,915.619,VALID,0,VALID,97.7851,VALID,-0.0339617,VALID,19.856,VALID,88,VALID,0.768429,
2005-06-18, 02:12:00,VALID,915.613,VALID,0,VALID,97.6058,VALID,-0.0169808,VALID,19.9014,VALID,76,VALID,0.788261,
2005-06-18, 02:13:00,VALID,915.601,VALID,0,VALID,97.4583,VALID,0,VALID,19.9144,VALID,65,VALID,0.778343,
2005-06-18, 02:14:00,VALID,915.591,VALID,0,VALID,97.4392,VALID,-0.0339617,VALID,19.9504,VALID,71,VALID,0.805618,
2005-06-18, 02:15:00,VALID,915.571,VALID,0,VALID,97.2409,VALID,0,VALID,19.9593,VALID,85,VALID,0.946987,
2005-06-18, 02:16:00,VALID,915.554,VALID,0,VALID,97.1023,VALID,-0.0339617,VALID,19.9469,VALID,84,VALID,1.14211,
2005-06-18, 02:17:00,VALID,915.547,VALID,0,VALID,96.923,VALID,-0.0169808,VALID,19.9466,VALID,79,VALID,0.83817,
2005-06-18, 02:18:00,VALID,915.526,VALID,0,VALID,96.7513,VALID,-0.0169808,VALID,19.9469,VALID,96,VALID,0.794876,
2005-06-18, 02:19:00,VALID,915.507,VALID,0,VALID,96.7449,VALID,-0.0339617,VALID,19.9305,VALID,139,VALID,0.689174,
2005-06-18, 02:20:00,VALID,915.508,VALID,0,VALID,96.8797,VALID,-0.0339617,VALID,19.9084,VALID,126,VALID,1.07031,
2005-06-18, 02:21:00,VALID,915.492,VALID,0,VALID,96.7704,VALID,-0.0509425,VALID,19.9178,VALID,95,VALID,0.939862,
2005-06-18, 02:22:00,VALID,915.49,VALID,0,VALID,96.5351,VALID,-0.0509425,VALID,19.9663,VALID,75,VALID,0.739383,
2005-06-18, 02:23:00,VALID,915.487,VALID,0,VALID,96.324,VALID,-0.0169808,VALID,19.9824,VALID,73,VALID,0.478379,
2005-06-18, 02:24:00,VALID,915.497,VALID,0,VALID,96.3889,VALID,0,VALID,19.9856,VALID,73,VALID,0.461119,
2005-06-18, 02:25:00,VALID,915.477,VALID,0,VALID,96.38,VALID,-0.0169808,VALID,19.9889,VALID,73,VALID,0.414621,
2005-06-18, 02:26:00,VALID,915.479,VALID,0,VALID,96.3444,VALID,-0.0339617,VALID,20.0018,VALID,73,VALID,0.533381,
2005-06-18, 02:27:00,VALID,915.501,VALID,0,VALID,96.2338,VALID,-0.0339617,VALID,20.0112,VALID,73,VALID,0.160252,
2005-06-18, 02:28:00,VALID,915.486,VALID,0,VALID,96.1854,VALID,-0.0509425,VALID,20.0214,VALID,73,VALID,0.0876524,
2005-06-18, 02:29:00,VALID,915.489,VALID,0,VALID,96.0824,VALID,-0.0339617,VALID,20.0082,VALID,73,VALID,0.165365,
2005-06-18, 02:30:00,VALID,915.5,VALID,0,VALID,96.0634,VALID,-0.0169808,VALID,19.9752,VALID,73,VALID,0.352706,
2005-06-18, 02:31:00,VALID,915.522,VALID,0,VALID,96.3012,VALID,0.0169808,VALID,19.9461,VALID,73,VALID,0.453311,
2005-06-18, 02:32:00,VALID,915.529,VALID,0,VALID,96.5135,VALID,0.0679233,VALID,19.9091,VALID,73,VALID,0.221977,
2005-06-18, 02:33:00,VALID,915.558,VALID,0,VALID,96.5262,VALID,0.0679233,VALID,19.8972,VALID,73,VALID,0.0716146,
2005-06-18, 02:34:00,VALID,915.553,VALID,0,VALID,96.1231,VALID,0.101885,VALID,19.8416,VALID,73,VALID,0,
2005-06-18, 02:35:00,VALID,915.555,VALID,0,VALID,96.3914,VALID,0.0849042,VALID,19.7638,VALID,73,VALID,0.177431,
2005-06-18, 02:36:00,VALID,915.532,VALID,0,VALID,96.8301,VALID,0.101885,VALID,19.7256,VALID,73,VALID,0.244048,
2005-06-18, 02:37:00,VALID,915.528,VALID,0,VALID,97.1684,VALID,0.0509425,VALID,19.6906,VALID,73,VALID,0.217297,
2005-06-18, 02:38:00,VALID,915.522,VALID,0,VALID,97.2205,VALID,0,VALID,19.658,VALID,73,VALID,0.34189,
2005-06-18, 02:39:00,VALID,915.533,VALID,0,VALID,97.143,VALID,0.0509425,VALID,19.5835,VALID,73,VALID,0.190874,
2005-06-18, 02:40:00,VALID,915.526,VALID,0,VALID,97.6605,VALID,0.0509425,VALID,19.5515,VALID,73,VALID,0.303199,
2005-06-18, 02:41:00,VALID,915.504,VALID,0,VALID,98.0954,VALID,0.0339617,VALID,19.539,VALID,73,VALID,0.478849,
2005-06-18, 02:42:00,VALID,915.479,VALID,0,VALID,98.3523,VALID,0.0509425,VALID,19.5614,VALID,73,VALID,0.617535,
2005-06-18, 02:43:00,VALID,915.45,VALID,0,VALID,98.1488,VALID,0.0339617,VALID,19.6098,VALID,67,VALID,1.13421,
2005-06-18, 02:44:00,VALID,915.437,VALID,0,VALID,97.7393,VALID,0.0679233,VALID,19.6227,VALID,62,VALID,1.26491,
2005-06-18, 02:45:00,VALID,915.45,VALID,0,VALID,97.452,VALID,0,VALID,19.62,VALID,47,VALID,0.797828,
2005-06-18, 02:46:00,VALID,915.442,VALID,0,VALID,97.3286,VALID,0,VALID,19.5465,VALID,341,VALID,0.453646,
2005-06-18, 02:47:00,VALID,915.422,VALID,0,VALID,97.9097,VALID,0,VALID,19.5336,VALID,318,VALID,0.0715843,
2005-06-18, 02:48:00,VALID,915.409,VALID,0,VALID,97.9441,VALID,-0.0169808,VALID,19.5433,VALID,318,VALID,0.236192,
2005-06-18, 02:49:00,VALID,915.404,VALID,0,VALID,98.0026,VALID,0,VALID,19.5336,VALID,7,VALID,0.484375,
2005-06-18, 02:50:00,VALID,915.398,VALID,0,VALID,97.9644,VALID,-0.0169808,VALID,19.5239,VALID,30,VALID,0.342478,
2005-06-18, 02:51:00,VALID,915.371,VALID,0,VALID,97.8156,VALID,0,VALID,19.5107,VALID,30,VALID,0.0277778,
2005-06-18, 02:52:00,VALID,915.349,VALID,0,VALID,97.9657,VALID,-0.0169808,VALID,19.5045,VALID,30,VALID,0.28776,
2005-06-18, 02:53:00,VALID,915.343,VALID,0,VALID,98.1475,VALID,0,VALID,19.5112,VALID,35,VALID,0.266555,
2005-06-18, 02:54:00,VALID,915.316,VALID,0,VALID,98.0941,VALID,0,VALID,19.514,VALID,22,VALID,0.392773,
2005-06-18, 02:55:00,VALID,915.306,VALID,0,VALID,97.7139,VALID,-0.0169808,VALID,19.5788,VALID,359,VALID,0.124628,
2005-06-18, 02:56:00,VALID,915.31,VALID,0,VALID,97.2561,VALID,0,VALID,19.6436,VALID,7,VALID,0.186738,
2005-06-18, 02:57:00,VALID,915.31,VALID,0,VALID,97.0654,VALID,-0.0169808,VALID,19.6987,VALID,117,VALID,0.504764,
2005-06-18, 02:58:00,VALID,915.316,VALID,0,VALID,96.9446,VALID,-0.0339617,VALID,19.7179,VALID,84,VALID,0.356898,
2005-06-18, 02:59:00,VALID,915.287,VALID,0,VALID,96.6877,VALID,0,VALID,19.6918,VALID,40,VALID,0.321484,
2005-06-18, 03:00:00,VALID,915.288,VALID,0,VALID,96.7068,VALID,-0.0339617,VALID,19.6339,VALID,53,VALID,0.993096,
2005-06-18, 03:01:00,VALID,915.271,VALID,0,VALID,96.9878,VALID,0,VALID,19.5656,VALID,62,VALID,0.909157,
2005-06-18, 03:02:00,VALID,915.255,VALID,0,VALID,97.1824,VALID,0,VALID,19.5117,VALID,62,VALID,0.838118,
2005-06-18, 03:03:00,VALID,915.248,VALID,0,VALID,97.8245,VALID,-0.0169808,VALID,19.4985,VALID,66,VALID,0.795099,
2005-06-18, 03:04:00,VALID,915.227,VALID,0,VALID,98.1755,VALID,0,VALID,19.508,VALID,71,VALID,0.521577,
2005-06-18, 03:05:00,VALID,915.216,VALID,0,VALID,98.2048,VALID,0,VALID,19.5179,VALID,81,VALID,0.639027,
2005-06-18, 03:06:00,VALID,915.219,VALID,0,VALID,98.2391,VALID,0,VALID,19.5269,VALID,110,VALID,0.779948,
2005-06-18, 03:07:00,VALID,915.199,VALID,0,VALID,98.1234,VALID,0,VALID,19.5207,VALID,111,VALID,0.777344,
2005-06-18, 03:08:00,VALID,915.177,VALID,0,VALID,98.1386,VALID,-0.0169808,VALID,19.5115,VALID,115,VALID,0.725991,
2005-06-18, 03:09:00,VALID,915.18,VALID,0,VALID,98.2073,VALID,0,VALID,19.4946,VALID,118,VALID,0.553267,
2005-06-18, 03:10:00,VALID,915.173,VALID,0,VALID,98.3993,VALID,-0.0169808,VALID,19.5149,VALID,120,VALID,0.543857,
2005-06-18, 03:11:00,VALID,915.164,VALID,0,VALID,98.4896,VALID,0.0169808,VALID,19.5107,VALID,120,VALID,0.304688,
2005-06-18, 03:12:00,VALID,915.166,VALID,0,VALID,98.4362,VALID,-0.0339617,VALID,19.5174,VALID,120,VALID,0.501803,
2005-06-18, 03:13:00,VALID,915.159,VALID,0,VALID,98.3993,VALID,0,VALID,19.5306,VALID,120,VALID,0.38956,
2005-06-18, 03:14:00,VALID,915.143,VALID,0,VALID,98.4794,VALID,0,VALID,19.5236,VALID,120,VALID,0.61287,
2005-06-18, 03:15:00,VALID,915.154,VALID,0,VALID,98.6142,VALID,-0.0169808,VALID,19.537,VALID,130,VALID,0.817769,
2005-06-18, 03:16:00,VALID,915.161,VALID,0,VALID,98.646,VALID,-0.0339617,VALID,19.5271,VALID,130,VALID,0.515439,
2005-06-18, 03:17:00,VALID,915.161,VALID,0,VALID,98.6193,VALID,0,VALID,19.5343,VALID,130,VALID,0.367188,
2005-06-18, 03:18:00,VALID,915.158,VALID,0,VALID,98.7019,VALID,0,VALID,19.5142,VALID,130,VALID,0.335751,
2005-06-18, 03:19:00,VALID,915.154,VALID,0,VALID,98.6155,VALID,0,VALID,19.5177,VALID,130,VALID,0.267933,
2005-06-18, 03:20:00,VALID,915.146,VALID,0,VALID,98.44,VALID,-0.0169808,VALID,19.5112,VALID,130,VALID,0.420945,
2005-06-18, 03:21:00,VALID,915.152,VALID,0,VALID,98.3001,VALID,-0.0339617,VALID,19.4951,VALID,130,VALID,0.165838,
2005-06-18, 03:22:00,VALID,915.156,VALID,0,VALID,98.3383,VALID,0.0169808,VALID,19.4722,VALID,130,VALID,0,
2005-06-18, 03:23:00,VALID,915.154,VALID,0,VALID,98.5315,VALID,0,VALID,19.463,VALID,130,VALID,0.277439,
2005-06-18, 03:24:00,VALID,915.135,VALID,0,VALID,98.6091,VALID,0,VALID,19.466,VALID,130,VALID,0.503018,
2005-06-18, 03:25:00,VALID,915.141,VALID,0,VALID,98.6447,VALID,0,VALID,19.4625,VALID,130,VALID,0.461447,
2005-06-18, 03:26:00,VALID,915.149,VALID,0,VALID,98.6473,VALID,-0.0169808,VALID,19.4494,VALID,130,VALID,0.0587713,
2005-06-18, 03:27:00,VALID,915.151,VALID,0,VALID,98.6498,VALID,-0.0169808,VALID,19.4399,VALID,130,VALID,0.0113636,
2005-06-18, 03:28:00,VALID,915.158,VALID,0,VALID,98.5315,VALID,0.0169808,VALID,19.4365,VALID,130,VALID,0,
2005-06-18, 03:29:00,VALID,915.155,VALID,0,VALID,98.0814,VALID,0,VALID,19.4109,VALID,130,VALID,0.235899,
2005-06-18, 03:30:00,VALID,915.133,VALID,0,VALID,98.0814,VALID,0,VALID,19.3557,VALID,100,VALID,0.571615,
2005-06-18, 03:31:00,VALID,915.128,VALID,0,VALID,98.4324,VALID,0,VALID,19.3267,VALID,78,VALID,0.784489,
2005-06-18, 03:32:00,VALID,915.128,VALID,0,VALID,98.7325,VALID,0,VALID,19.3398,VALID,84,VALID,0.885789,
2005-06-18, 03:33:00,VALID,915.136,VALID,0,VALID,98.6829,VALID,0,VALID,19.3433,VALID,98,VALID,0.713118,
2005-06-18, 03:34:00,VALID,915.134,VALID,0,VALID,98.7719,VALID,0,VALID,19.3461,VALID,97,VALID,0.484747,
2005-06-18, 03:35:00,VALID,915.136,VALID,0,VALID,98.8749,VALID,0,VALID,19.3622,VALID,97,VALID,0.443638,